Location: Unspecified
(42.9300°N, 71.1866°W)
Time: 16:06:02
(UTC-04:00)

Genesis I - Visible Passes

Search period start: 29 August 2014 00:00
Search period end: 08 September 2014 00:00
Orbit: 503 x 562 km, 64.5° (Epoch: 29 August)

Date Brightness Start Highest point End Pass type
(mag) Time Alt. Az. Time Alt. Az. Time Alt. Az.
29 Aug 3.9 04:41:45 17° SSW 04:44:41 54° ESE 04:48:40 10° NE visible
30 Aug 3.6 04:32:18 26° SSW 04:34:25 63° ESE 04:38:27 10° NE visible
31 Aug 3.3 04:22:46 39° SSW 04:24:08 75° ESE 04:28:13 10° NE visible
01 Sep 3.2 04:13:09 60° SSW 04:13:51 87° ESE 04:17:57 10° NE visible
02 Sep 3.1 04:03:29 80° W 04:03:34 81° NW 04:07:41 10° NNE visible
02 Sep 5.5 05:40:28 10° WNW 05:42:19 13° NW 05:44:12 10° N visible
03 Sep 3.5 03:53:45 63° N 03:53:45 63° N 03:57:23 10° NNE visible
03 Sep 5.6 05:30:42 10° NW 05:32:08 12° NW 05:33:36 10° NNW visible
04 Sep 4.1 03:43:57 46° N 03:43:57 46° N 03:47:05 10° NNE visible
04 Sep 5.7 05:21:08 10° NW 05:21:57 11° NNW 05:22:47 10° NNW visible
05 Sep 4.7 03:34:07 35° N 03:34:07 35° N 03:36:45 10° NNE visible
06 Sep 5.1 03:24:14 27° N 03:24:14 27° N 03:26:25 10° NNE visible
07 Sep 5.5 03:14:19 22° N 03:14:19 22° N 03:16:04 10° NNE visible
